{"data":{"norad_id":64033,"intl_designator":"2025-102M","name":"STARLINK-33860","alt_names":[],"object_type":"PAYLOAD","status":"ACTIVE","operator":null,"country":"US","launch_date":"2025-05-16","launch_site_code":"AFWTR","launch_vehicle":null,"mission":null,"orbit_class":"UNKNOWN","rcs_meters":null,"size_class":null,"mass_kg":null,"dimensions":null,"purposes":["comms"],"wikipedia_slug":null,"has_3d_model":false,"image_url":null,"decayed_at":null,"tle_current":{"epoch":"2026-09-20T22:52:22.668960Z","epoch_age_seconds":104416,"freshness":"FRESH","line1":"1 64033U 25102M   26263.95304015  .00019694  00000+0  67045-3 0  9995","line2":"2 64033  70.0022 339.6163 0003600 268.7218  91.3545 15.30407937 75270","mean_motion":15.30407937,"eccentricity":0.00036,"inclination_deg":70.0022,"raan_deg":339.6163,"arg_perigee_deg":268.7218,"mean_anomaly_deg":91.3545,"bstar":0.00067045,"rev_number":7527,"period_min":94.092559584001,"perigee_km":472.12729405675,"apogee_km":477.06126057642,"semimajor_km":6852.7312773166,"source":"CELESTRAK","updated_at":"2026-09-21T09:00:35.188077Z"}}}